Theta_e
306 306 305 305 305 304 299 296 288 301 303 290 292 288 287 289 290 291 288 289 287 287 287 285 285 284 286 290 289 284 287 285 282 282 288 288 287 285 285 281 279 282 282 281
305 306 305 304 305 303 299 291 294 299 300 285 284 288 287 290 289 289 288 287 289 289 287 283 286 287 291 291 288 286 287 284 280 280 284 287 284 286 287 285 285 280 280 281
302 305 305 304 305 304 300 293 285 287 293 293 287 286 286 286 291 290 290 289 290 288 286 288 286 286 289 291 289 289 289 284 280 279 279 283 281 284 287 284 283 281 282 282
301 302 305 304 304 304 299 293 288 293 283 286 288 287 287 286 285 290 291 288 288 287 283 285 285 288 288 289 290 289 288 280 282 282 283 283 283 284 285 283 284 282 283 283
300 301 303 304 304 303 295 285 289 292 291 291 288 287 285 286 287 288 287 287 288 289 285 286 284 288 287 286 289 288 288 282 282 278 282 283 282 285 285 286 286 285 285 285
298 300 300 303 304 302 293 296 296 294 289 290 287 287 287 286 290 290 291 290 289 287 289 291 292 292 291 290 288 287 285 283 280 277 281 282 279 284 286 286 287 287 283 287
297 298 298 299 303 303 296 296 295 291 286 288 287 289 289 288 289 288 290 291 289 291 295 294 293 291 289 290 289 290 285 283 282 280 280 273 285 289 288 286 287 288 288 288
296 297 298 298 300 303 300 296 294 293 288 288 288 289 289 290 292 290 290 291 294 296 293 287 283 282 281 281 287 288 288 285 280 278 278 282 283 286 286 285 285 289 288 289
296 296 298 297 299 302 302 298 300 295 290 287 291 289 290 288 289 289 290 292 297 295 290 286 280 278 281 278 281 287 287 287 283 279 276 275 284 289 292 290 281 291 290 289
295 295 296 297 296 295 301 298 302 295 290 292 292 289 289 293 291 289 290 289 290 294 288 284 281 281 284 279 279 278 281 281 279 280 279 282 287 291 292 279 284 292 290 291
294 295 296 296 296 297 299 296 302 297 293 293 293 294 292 292 293 289 291 289 289 289 286 285 284 283 283 282 285 282 281 279 279 281 278 276 291 289 284 290 293 291 292 292
294 295 295 296 297 297 300 293 300 302 295 293 296 297 297 298 298 295 293 292 291 292 289 288 288 283 285 284 280 287 281 286 284 284 285 291 292 292 294 292 290 292 292 294
294 294 295 295 296 296 293 296 297 298 294 292 293 292 297 298 299 302 293 293 294 292 297 291 290 284 287 282 283 285 287 290 286 285 289 289 292 294 294 293 293 294 295 295
294 294 295 295 295 294 294 294 297 298 294 288 290 295 295 298 298 298 299 297 295 296 296 291 289 286 289 286 286 285 289 289 286 286 289 289 291 293 294 293 294 295 296 295
294 294 295 295 294 294 294 298 298 301 293 287 288 293 293 296 298 297 297 296 294 294 291 289 288 290 288 289 287 285 289 287 285 285 291 291 289 293 294 293 293 295 295 293
294 294 295 295 295 295 294 286 296 300 298 290 284 291 291 294 296 295 295 296 295 295 293 292 291 290 290 285 282 288 291 292 292 290 292 291 293 294 295 293 295 295 294 292
294 294 295 295 293 290 288 290 295 300 300 290 282 284 289 294 294 294 294 295 294 295 292 291 290 289 291 286 281 287 290 291 292 293 292 289 292 291 294 295 296 293 293 292
294 294 295 295 295 295 292 298 299 300 293 292 283 281 284 291 287 285 294 291 293 293 290 290 288 289 289 282 286 289 290 290 291 291 293 292 293 294 295 295 294 291 290 291
294 294 294 292 286 285 293 298 299 299 294 286 285 280 279 289 287 288 288 291 284 290 286 287 288 285 281 285 287 288 289 289 289 291 292 292 292 293 294 293 291 289 290 291
294 291 285 282 286 298 298 291 286 286 287 289 285 288 282 288 287 285 286 288 283 279 285 288 284 283 287 288 290 290 291 291 291 289 288 290 290 291 292 292 291 291 291 291
286 284 284 292 298 293 287 283 283 283 281 286 287 287 283 290 284 284 288 283 284 279 283 282 281 281 285 290 290 291 292 292 292 292 293 293 293 292 293 292 291 292 291 291
288 287 292 291 287 283 280 280 281 282 280 285 284 286 288 288 290 285 285 282 283 277 285 279 278 284 288 289 290 292 293 292 292 293 293 293 293 294 293 292 291 291 291 289
287 287 284 284 281 276 275 274 278 279 283 285 287 284 288 288 289 285 284 279 279 285 279 278 282 288 289 290 293 293 293 293 292 293 295 294 294 293 292 290 289 287 288 288
285 282 277 278 276 277 281 282 283 285 285 288 289 287 287 289 285 284 279 283 282 276 275 278 286 288 291 292 292 293 293 292 292 293 293 291 290 286 285 285 285 285 285 285
283 283 276 277 282 284 286 287 286 287 290 290 288 287 287 285 282 284 281 278 276 278 279 285 289 290 291 290 291 293 292 291 292 292 289 286 285 285 285 285 285 285 284 284
284 282 279 282 282 282 284 286 285 289 291 291 289 285 282 281 282 280 278 278 276 281 286 290 290 289 290 291 292 292 292 292 291 290 287 286 285 286 286 286 285 284 285 283
281 280 285 284 285 285 285 286 285 292 288 284 285 280 279 285 280 279 283 280 285 288 289 290 290 288 288 289 291 291 291 289 288 288 288 287 287 287 286 284 284 284 285 284
Wind_Speed
20 20 18 16 14 15 8 3 3 4 7 6 3 5 4 1 11 6 3 5 4 9 10 7 6 7 3 3 1 2 3 3 3 2 1 2 3 6 6 5 4 3 4 5
17 23 21 18 20 20 6 4 2 1 6 6 6 4 4 4 11 12 8 7 4 4 9 5 6 7 8 6 2 1 1 3 3 6 5 6 1 6 6 4 3 5 4 4
17 18 23 21 22 21 9 4 6 2 5 3 12 10 7 7 8 10 8 6 7 10 7 4 8 9 9 6 3 3 3 3 4 4 3 4 3 7 5 1 4 4 5 6
20 18 26 25 25 23 10 4 6 10 9 13 12 14 11 17 10 8 12 8 11 11 4 6 7 9 8 6 6 6 3 5 2 4 5 7 8 8 5 3 1 4 6 2
20 20 19 27 27 27 10 6 5 5 4 19 20 14 14 18 15 15 16 11 15 14 8 7 10 11 8 6 8 7 2 3 2 3 3 6 7 5 4 3 5 4 3 2
21 18 22 25 30 25 5 8 3 5 9 15 16 17 14 18 15 12 8 17 13 14 11 6 5 3 3 3 7 9 5 5 4 3 3 5 7 12 9 4 4 3 6 5
21 19 20 23 32 29 4 7 6 6 6 13 16 17 24 15 19 10 9 12 13 7 14 13 9 5 3 5 6 6 7 7 2 1 4 6 4 6 5 6 4 5 3 3
24 22 23 19 19 32 11 5 11 6 6 13 15 15 19 18 13 10 11 12 6 16 12 5 4 2 2 1 7 10 8 6 3 4 8 6 10 12 12 9 9 8 5 4
23 23 22 16 24 29 16 9 10 8 3 11 13 18 16 14 14 9 7 5 13 8 4 4 6 6 5 6 7 7 8 6 5 3 4 5 5 10 9 3 10 13 7 6
25 26 23 23 20 21 19 8 14 11 3 6 15 14 15 14 15 11 9 11 9 6 4 4 5 5 4 9 11 9 8 5 10 7 6 6 5 13 10 7 2 10 4 5
24 25 24 22 19 23 16 10 15 13 6 3 10 6 12 11 13 11 14 9 5 6 7 6 5 5 7 5 7 11 13 10 6 7 6 8 14 14 11 5 8 3 4 4
23 23 24 24 18 23 20 6 14 11 9 2 2 4 6 11 17 10 14 6 17 8 7 4 4 4 5 7 5 11 8 8 5 9 4 6 16 5 10 4 3 3 4 3
22 22 24 24 21 18 15 9 13 12 9 7 5 8 6 3 5 7 7 4 6 7 2 5 3 4 6 7 7 8 10 6 6 5 11 10 12 10 10 4 5 3 4 3
22 23 23 24 17 13 20 11 13 11 7 5 9 3 5 3 5 5 1 12 6 9 4 3 3 3 5 3 2 6 3 11 12 10 7 4 11 15 13 8 6 5 4 2
22 22 22 21 15 17 14 9 14 13 9 8 5 6 3 5 6 8 10 14 12 6 4 3 4 3 4 2 2 9 9 10 10 7 9 10 1 9 15 12 9 7 6 4
23 22 23 26 14 25 9 6 12 15 8 5 6 3 6 7 9 9 12 8 5 4 4 3 3 3 5 5 5 6 11 15 14 13 6 6 7 9 10 9 8 8 5 3
24 23 22 20 16 6 8 5 13 22 11 5 6 6 4 12 12 4 4 4 3 2 3 3 4 5 5 3 6 5 10 11 11 10 8 9 12 9 9 8 9 8 5 4
24 22 24 25 17 12 9 5 31 18 6 4 6 5 6 9 5 5 4 4 3 1 3 3 4 4 4 8 13 15 11 9 10 11 13 7 11 9 10 10 9 8 6 5
22 19 13 3 4 4 7 17 29 9 4 7 6 10 7 6 4 5 3 4 4 3 5 6 6 7 10 14 14 12 13 11 12 12 12 12 13 13 12 11 9 6 5 5
26 9 5 5 6 30 24 7 5 3 0 3 5 7 7 11 9 4 7 4 5 6 7 7 6 10 15 15 12 7 11 14 11 14 16 14 15 12 12 12 8 5 4 4
6 5 5 8 29 7 4 5 6 6 7 7 6 11 12 8 10 8 3 6 6 6 7 8 6 6 12 18 21 15 11 11 15 12 12 15 14 13 12 10 7 6 4 5
8 2 7 5 5 4 6 5 5 7 8 11 15 14 11 7 5 4 5 4 6 5 9 6 5 5 10 7 11 18 18 13 13 12 9 12 16 12 11 9 7 4 1 3
3 8 5 6 4 6 6 9 6 8 10 13 17 14 7 6 3 4 4 7 5 10 7 6 6 3 6 9 8 11 16 18 14 11 11 13 14 12 10 8 5 2 2 4
4 4 8 4 6 4 5 10 11 8 13 17 16 11 6 5 5 4 6 4 6 7 6 7 4 9 8 7 7 11 15 17 18 16 15 13 12 8 6 5 4 2 1 4
3 5 6 3 6 6 8 12 12 11 15 17 14 8 5 5 5 4 5 8 7 8 6 4 4 11 10 10 10 13 15 14 16 16 14 9 8 7 6 4 3 2 2 3
4 6 7 8 11 9 8 11 13 13 14 11 6 6 6 5 5 8 8 7 7 5 7 5 9 11 11 12 13 14 15 16 15 13 13 10 7 6 6 5 4 0 1 3
5 5 7 4 10 9 9 10 11 13 14 12 6 6 6 6 6 8 6 5 3 6 7 7 11 14 14 14 15 15 16 15 14 13 11 10 8 7 5 3 3 3 3 4
Wind_Direction
214 206 198 177 171 157 183 210 220 127 189 166 200 203 212 176 172 191 160 188 140 178 164 171 166 172 128 165 273 177 34 293 284 1 264 331 25 13 23 322 19 35 303 59
244 208 199 186 162 175 168 202 147 107 254 190 196 210 215 227 178 190 184 175 177 174 176 158 175 164 133 158 197 150 79 192 261 171 187 207 292 339 354 189 251 31 318 59
290 233 200 188 169 181 210 176 170 166 223 232 201 177 191 185 200 199 190 157 164 165 174 167 178 166 169 174 194 89 242 233 273 333 356 295 286 340 341 317 287 119 55 106
262 288 200 191 177 174 200 216 224 180 190 207 205 198 183 190 176 210 188 183 199 174 155 174 189 173 155 184 186 198 260 221 222 286 278 257 281 296 320 244 242 300 131 83
260 264 235 192 182 169 208 170 188 183 211 200 202 192 207 198 186 173 195 210 190 189 171 184 191 181 190 183 171 197 196 195 167 257 213 246 254 245 220 121 115 124 173 135
251 257 250 224 188 168 184 195 185 240 167 184 193 206 202 200 182 202 203 199 182 198 194 162 98 138 150 171 180 194 180 170 184 218 245 224 252 216 205 187 217 265 267 36
251 253 258 271 191 191 127 192 194 206 193 190 197 199 208 203 196 177 184 192 185 137 110 109 101 107 158 208 212 228 195 185 166 167 191 225 90 164 200 230 208 213 215 277
249 245 248 259 226 202 190 191 196 205 212 205 196 196 200 198 193 191 168 169 145 149 142 130 128 127 126 229 239 206 218 181 163 222 217 311 209 210 196 202 216 220 239 267
246 242 243 237 256 228 199 185 198 213 235 216 192 192 183 187 180 162 140 109 151 151 140 151 191 189 171 166 164 205 184 248 241 176 244 247 54 163 175 184 259 183 227 275
246 244 243 234 245 259 213 180 197 200 217 236 191 187 186 181 176 173 143 150 165 200 148 166 187 198 200 177 178 178 180 209 218 210 250 270 167 153 157 206 95 153 226 287
241 241 232 247 234 233 241 183 193 193 199 198 213 186 181 173 184 167 147 142 184 178 181 190 178 210 198 210 180 174 180 181 190 206 224 247 164 158 207 104 146 190 246 276
235 234 230 232 252 225 230 166 183 194 198 304 260 247 299 220 186 173 180 176 168 159 168 199 158 177 172 202 208 195 208 209 185 207 218 112 177 207 179 161 200 214 271 291
237 234 230 226 235 229 291 163 158 174 181 211 222 207 187 225 192 187 140 188 134 172 79 143 155 193 188 183 220 198 223 200 230 183 214 196 195 197 187 186 202 211 229 217
237 235 232 224 226 256 285 163 174 170 143 197 179 148 186 155 169 151 132 128 109 125 156 126 165 191 226 206 23 238 208 167 217 229 229 197 219 212 209 200 193 191 178 207
234 234 232 219 202 233 277 155 178 178 171 174 149 135 137 166 168 131 144 147 142 150 138 152 176 127 161 192 258 234 195 210 205 217 218 212 156 207 207 201 196 188 188 197
227 231 231 218 222 216 200 132 188 182 156 134 153 75 166 156 164 148 144 146 148 133 147 161 157 99 202 216 236 240 214 224 235 244 169 233 168 158 163 189 170 159 171 187
222 225 220 207 196 278 215 139 151 184 161 122 131 141 140 161 141 131 144 130 99 101 116 178 168 178 184 245 238 206 215 219 227 223 192 200 180 194 188 178 154 149 158 185
225 222 213 216 224 238 189 101 146 169 117 136 148 112 137 178 156 130 189 134 135 135 123 157 193 146 210 247 236 239 222 213 197 198 206 221 196 170 158 156 160 169 185 183
210 204 182 175 194 202 136 142 159 168 162 146 166 160 147 175 126 116 146 162 168 119 195 194 187 194 220 232 234 221 207 206 206 195 196 191 181 168 165 170 173 190 188 196
185 155 179 183 183 121 105 120 135 141 328 145 150 135 142 165 156 136 137 182 149 182 193 142 228 243 239 241 229 217 199 199 194 192 189 190 193 183 180 185 180 191 197 227
180 164 204 148 127 89 71 144 173 132 139 167 142 163 145 165 166 132 176 168 174 197 161 206 209 243 237 229 222 205 194 186 197 206 206 206 199 188 181 173 171 181 206 244
155 225 137 106 90 103 144 153 153 161 150 155 158 154 138 141 148 140 179 172 187 193 138 200 239 229 218 190 206 205 194 178 183 194 204 196 188 178 166 157 154 152 251 304
137 205 105 109 88 120 168 160 147 121 138 159 148 141 142 146 152 118 166 174 172 125 184 218 233 167 174 181 169 171 186 184 173 167 148 144 141 139 145 132 110 136 299 323
220 120 92 93 133 174 186 160 149 118 142 148 153 138 140 124 159 141 151 126 150 201 215 217 227 197 167 166 167 167 168 176 175 156 144 134 126 115 99 103 123 126 21 322
112 86 91 109 108 116 124 110 128 141 150 150 144 122 124 132 132 181 133 180 210 214 201 200 169 155 152 148 151 150 151 150 150 136 131 121 121 122 121 122 125 123 267 304
66 72 96 118 111 124 133 140 131 151 146 135 152 125 151 165 164 173 197 191 200 200 194 137 141 143 139 138 137 136 140 139 133 126 127 124 114 122 129 138 121 80 293 323
59 78 84 118 117 129 131 136 138 154 146 152 152 158 168 125 196 188 186 198 139 134 135 139 141 144 139 133 131 127 130 125 121 122 122 122 129 141 144 127 74 4 1 335